StationID,Date,MaxTemp,MinTemp,Precipitation,Snowfall,SnowDepth
"USC00440449","1945-08-05",82.04,66.02,0.00,,
"USC00440449","1945-08-06",82.04,62.06,0.00,,
"USC00440449","1945-08-07",86.00,60.08,25.00,,
"USC00440449","1945-08-08",80.06,55.94,0.00,,
"USC00440449","1945-08-09",82.94,55.94,25.00,,
"USC00440449","1945-08-10",80.96,57.92,0.00,,
"USC00440449","1945-08-11",86.00,57.02,0.00,,
"USC00440449","1945-08-12",84.92,62.06,0.00,,
"USC00440449","1945-08-13",86.00,66.02,0.00,,
"USC00440449","1945-08-14",87.08,69.98,0.00,,
"USC00440449","1945-08-15",91.94,62.06,84.00,,
"USC00440449","1945-08-16",78.98,57.92,0.00,,
"USC00440449","1945-08-17",80.06,60.08,0.00,,
"USC00440449","1945-08-18",82.94,57.92,0.00,,
"USC00440449","1945-08-19",84.92,57.92,0.00,,
"USC00440449","1945-08-20",86.00,59.00,0.00,,
"USC00440449","1945-08-21",87.98,62.06,0.00,,
"USC00440449","1945-08-22",93.02,62.96,140.00,,
"USC00440449","1945-08-23",69.98,62.06,43.00,,
"USC00440449","1945-08-24",66.92,57.92,127.00,,
"USC00440449","1945-08-25",78.08,57.02,30.00,,
"USC00440449","1945-08-26",73.94,51.08,0.00,,
"USC00440449","1945-08-27",75.92,50.00,0.00,,
"USC00440449","1945-08-28",87.98,51.08,0.00,,
"USC00440449","1945-08-29",93.02,60.08,0.00,,
"USC00440449","1945-08-30",93.02,64.04,142.00,,
"USC00440449","1945-08-31",89.06,64.94,0.00,,
"USC00440449","1945-09-11",91.94,55.94,0.00,,
"USC00440449","1945-09-12",80.06,51.98,0.00,,
"USC00440449","1945-09-13",82.04,55.94,0.00,,
"USC00440449","1945-09-14",87.98,64.94,91.00,,
"USC00440449","1945-09-15",71.96,57.92,36.00,,
"USC00440449","1945-09-16",69.98,53.96,64.00,,
"USC00440449","1945-09-17",62.96,55.04,508.00,,
"USC00440449","1945-09-18",77.00,60.08,483.00,,
"USC00440449","1945-09-19",73.04,55.04,0.00,,
"USC00440449","1945-09-20",80.06,60.08,15.00,,
"USC00440449","1945-09-27",84.02,64.04,46.00,,
"USC00440449","1945-09-28",87.98,64.94,0.00,,
"USC00440449","1945-09-29",91.04,51.08,64.00,,
"USC00440449","1945-09-30",57.92,51.98,8.00,,
"USC00440449","1945-10-01",69.98,51.08,0.00,,
"USC00440449","1945-10-04",,35.96,0.00,,
"USC00440449","1945-10-16",66.02,32.00,0.00,,
"USC00440449","1945-10-17",75.92,39.02,,,
"USC00440449","1945-10-18",78.98,73.04,,,
"USC00440449","1945-10-19",80.96,44.06,0.00,,
"USC00440449","1945-10-20",69.98,39.02,0.00,,
"USC00440449","1945-10-21",75.02,46.94,0.00,,
"USC00440449","1945-10-22",78.08,48.92,0.00,,
"USC00440449","1945-10-23",,32.00,201.00,,
"USC00440449","1945-10-24",66.92,32.00,0.00,,
"USC00440449","1945-10-27",62.06,32.00,8.00,,
"USC00440449","1945-10-28",71.96,37.94,0.00,,
"USC00440449","1945-10-29",80.06,41.00,0.00,,
"USC00440449","1945-10-30",77.00,39.02,0.00,,
"USC00440449","1945-10-31",78.98,41.00,0.00,,
"USC00440449","1946-01-01",35.06,24.08,0.00,,
"USC00440449","1946-01-02",33.08,17.06,0.00,,
"USC00440449","1946-01-03",41.00,17.06,0.00,,
"USC00440449","1946-01-04",44.06,23.00,0.00,,
"USC00440449","1946-01-05",55.04,30.92,0.00,,
"USC00440449","1946-01-06",64.94,51.98,0.00,,
"USC00440449","1946-01-07",62.96,59.00,119.00,,
"USC00440449","1946-01-08",60.08,48.92,13.00,,
"USC00440449","1946-01-09",51.08,41.00,46.00,,
"USC00440449","1946-01-10",55.94,42.08,0.00,,
"USC00440449","1946-01-11",46.04,28.04,5.00,,
"USC00440449","1946-01-12",53.96,35.06,71.00,,
"USC00440449","1946-01-13",44.06,30.02,0.00,,
"USC00440449","1946-01-14",39.92,21.02,0.00,,
"USC00440449","1946-01-15",42.08,23.00,0.00,,
"USC00440449","1946-01-16",32.00,15.98,0.00,,
"USC00440449","1946-01-17",37.94,21.92,0.00,,
"USC00440449","1946-01-18",50.00,23.00,0.00,,
"USC00440449","1946-01-19",46.94,28.94,0.00,,
"USC00440449","1946-01-20",30.92,17.96,33.00,,
"USC00440449","1946-01-21",33.98,19.04,51.00,,
"USC00440449","1946-01-22",33.98,12.92,0.00,,
"USC00440449","1946-01-23",32.00,6.98,0.00,,
"USC00440449","1946-01-24",37.04,10.04,0.00,,
"USC00440449","1946-01-25",46.04,24.08,0.00,,
"USC00440449","1946-01-26",51.08,28.04,0.00,,
"USC00440449","1946-01-27",35.96,23.00,81.00,,
"USC00440449","1946-01-28",44.06,3.92,0.00,,
"USC00440449","1946-01-29",46.04,21.92,0.00,,
"USC00440449","1946-01-30",42.08,33.08,38.00,,
"USC00440449","1946-01-31",51.98,39.92,0.00,,
"USC00440449","1946-02-01",44.06,23.00,0.00,,
"USC00440449","1946-02-02",48.02,23.00,0.00,,
"USC00440449","1946-02-03",37.04,21.02,0.00,,
"USC00440449","1946-02-04",37.94,15.98,0.00,,
"USC00440449","1946-02-05",32.00,28.94,18.00,,
"USC00440449","1946-02-06",50.00,30.92,43.00,,
"USC00440449","1946-02-07",48.02,30.02,145.00,,
"USC00440449","1946-02-08",50.00,21.02,0.00,,
"USC00440449","1946-02-09",46.04,35.96,79.00,,
"USC00440449","1946-02-10",44.96,30.02,3.00,,
"USC00440449","1946-02-11",42.08,17.06,127.00,,
"USC00440449","1946-02-12",46.94,15.08,0.00,,
"USC00440449","1946-02-13",48.92,30.02,0.00,,
"USC00440449","1946-02-14",69.08,37.04,3.00,,
"USC00440449","1946-02-15",39.02,19.04,0.00,,
"USC00440449","1946-02-16",48.02,15.08,0.00,,
"USC00440449","1946-02-17",60.98,30.92,0.00,,
"USC00440449","1946-02-18",51.98,21.92,0.00,,
"USC00440449","1946-02-19",41.00,28.04,140.00,,
"USC00440449","1946-02-20",44.96,33.08,117.00,,
"USC00440449","1946-02-21",41.00,24.08,0.00,,
"USC00440449","1946-02-22",51.08,26.06,0.00,,
"USC00440449","1946-02-23",53.96,32.00,3.00,,
"USC00440449","1946-02-24",42.08,33.98,18.00,,
"USC00440449","1946-02-25",41.00,24.08,0.00,,
"USC00440449","1946-02-26",73.04,26.96,0.00,,
"USC00440449","1946-02-27",73.04,33.98,8.00,,
"USC00440449","1946-02-28",60.98,30.92,0.00,,
"USC00440449","1946-03-01",53.96,24.08,0.00,,
"USC00440449","1946-03-02",44.06,33.08,23.00,,
"USC00440449","1946-03-03",60.08,28.04,0.00,,
"USC00440449","1946-03-04",78.08,30.02,0.00,,
"USC00440449","1946-03-05",80.06,44.96,0.00,,
"USC00440449","1946-03-06",75.92,48.02,0.00,,
"USC00440449","1946-03-07",73.04,57.92,3.00,,
"USC00440449","1946-03-08",60.98,50.00,97.00,,
"USC00440449","1946-03-09",62.96,39.92,41.00,,
"USC00440449","1946-03-10",50.00,26.96,0.00,,
"USC00440449","1946-03-11",46.04,28.94,0.00,,
"USC00440449","1946-03-12",59.00,21.92,0.00,,
"USC00440449","1946-03-13",73.94,33.08,0.00,,
"USC00440449","1946-03-14",75.92,46.04,0.00,,
"USC00440449","1946-03-15",71.06,57.02,152.00,,
"USC00440449","1946-03-16",62.06,44.96,5.00,,
"USC00440449","1946-03-17",48.92,42.98,13.00,,
"USC00440449","1946-03-18",46.94,39.92,36.00,,
"USC00440449","1946-03-19",46.04,37.94,20.00,,
"USC00440449","1946-03-20",60.98,33.08,0.00,,
"USC00440449","1946-03-21",66.92,30.02,0.00,,
"USC00440449","1946-03-22",73.04,28.04,0.00,,
"USC00440449","1946-03-23",60.98,39.92,0.00,,
"USC00440449","1946-03-24",46.04,33.98,15.00,,
"USC00440449","1946-03-25",71.96,42.08,5.00,,
"USC00440449","1946-03-26",73.04,51.98,3.00,,
"USC00440449","1946-03-27",78.08,44.96,0.00,,
"USC00440449","1946-03-28",80.96,44.06,0.00,,
"USC00440449","1946-03-29",69.08,46.04,71.00,,
"USC00440449","1946-03-30",60.98,53.06,10.00,,
"USC00440449","1946-03-31",57.02,37.04,0.00,,
"USC00440449","1946-04-01",60.08,33.08,0.00,,
"USC00440449","1946-04-02",84.02,51.08,18.00,,
"USC00440449","1946-04-03",66.92,51.08,0.00,,
"USC00440449","1946-04-04",69.08,44.96,0.00,,
"USC00440449","1946-04-05",64.94,46.04,0.00,,
"USC00440449","1946-04-06",68.00,35.06,0.00,,
"USC00440449","1946-04-07",60.08,32.00,0.00,,
"USC00440449","1946-04-08",48.02,33.08,33.00,,
"USC00440449","1946-04-09",64.94,42.98,0.00,,
"USC00440449","1946-04-10",55.94,33.98,0.00,,
"USC00440449","1946-04-11",59.00,26.96,0.00,,
"USC00440449","1946-04-12",51.98,37.94,61.00,,
"USC00440449","1946-04-13",60.08,30.02,0.00,,
"USC00440449","1946-04-14",68.00,35.96,0.00,,
"USC00440449","1946-04-15",82.04,48.92,0.00,,
"USC00440449","1946-04-16",73.94,44.96,0.00,,
"USC00440449","1946-04-17",64.04,37.94,0.00,,
"USC00440449","1946-04-18",75.02,30.92,0.00,,
"USC00440449","1946-04-19",71.96,37.94,0.00,,
"USC00440449","1946-04-20",71.06,53.96,0.00,,
"USC00440449","1946-04-21",64.94,39.02,0.00,,
"USC00440449","1946-04-22",80.96,35.96,0.00,,
"USC00440449","1946-04-23",89.96,44.06,0.00,,
"USC00440449","1946-04-24",71.96,57.02,5.00,,
"USC00440449","1946-04-25",59.00,51.08,323.00,,
"USC00440449","1946-04-26",60.98,48.02,48.00,,
"USC00440449","1946-04-27",53.96,42.08,0.00,,
"USC00440449","1946-04-28",64.94,28.94,0.00,,
"USC00440449","1946-04-29",66.92,41.00,51.00,,
"USC00440449","1946-04-30",66.02,50.00,0.00,,
"USC00440449","1946-05-01",69.98,53.96,3.00,,
"USC00440449","1946-05-02",69.98,57.02,25.00,,
"USC00440449","1946-05-03",62.96,48.92,20.00,,
"USC00440449","1946-05-04",50.00,42.08,254.00,,
"USC00440449","1946-05-05",73.04,44.96,18.00,,
"USC00440449","1946-05-06",82.04,44.06,3.00,,
"USC00440449","1946-05-07",71.06,30.92,236.00,,
"USC00440449","1946-05-08",64.04,39.02,0.00,,
"USC00440449","1946-05-09",75.02,37.94,0.00,,
"USC00440449","1946-05-10",77.00,42.08,0.00,,
"USC00440449","1946-05-11",80.96,59.00,0.00,,
"USC00440449","1946-05-12",82.04,62.06,224.00,,
"USC00440449","1946-05-13",73.04,46.94,38.00,,
"USC00440449","1946-05-14",62.06,44.06,147.00,,
"USC00440449","1946-05-15",66.92,51.98,3.00,,
"USC00440449","1946-05-16",82.94,60.08,10.00,,
"USC00440449","1946-05-17",84.02,66.92,0.00,,
"USC00440449","1946-05-18",71.06,59.00,249.00,,
"USC00440449","1946-05-19",78.98,53.96,23.00,,
"USC00440449","1946-05-20",80.96,55.04,0.00,,
"USC00440449","1946-05-21",75.92,60.08,124.00,,
"USC00440449","1946-05-22",73.94,53.06,0.00,,
"USC00440449","1946-05-23",77.00,44.96,0.00,,
"USC00440449","1946-05-24",78.98,44.06,0.00,,
"USC00440449","1946-05-25",87.98,57.92,0.00,,
"USC00440449","1946-05-26",80.96,60.98,140.00,,
"USC00440449","1946-05-27",84.02,64.94,178.00,,
"USC00440449","1946-05-28",66.92,53.96,140.00,,
"USC00440449","1946-05-29",71.96,48.02,3.00,,
"USC00440449","1946-05-30",84.02,48.02,0.00,,
"USC00440449","1946-05-31",87.98,51.08,0.00,,
"USC00440449","1946-06-01",86.00,62.96,0.00,,
"USC00440449","1946-06-02",71.96,55.04,163.00,,
"USC00440449","1946-06-03",73.94,53.96,0.00,,
"USC00440449","1946-06-04",69.98,55.94,84.00,,
"USC00440449","1946-06-05",71.06,48.02,0.00,,
"USC00440449","1946-06-06",75.92,46.04,0.00,,
"USC00440449","1946-06-07",87.08,51.98,0.00,,
"USC00440449","1946-06-08",93.02,60.98,0.00,,
"USC00440449","1946-06-09",87.08,64.04,0.00,,
"USC00440449","1946-06-10",75.02,51.98,0.00,,
"USC00440449","1946-06-11",89.96,55.04,0.00,,
"USC00440449","1946-06-12",84.02,66.92,0.00,,
"USC00440449","1946-06-13",84.92,68.00,0.00,,
"USC00440449","1946-06-14",73.94,62.96,8.00,,
"USC00440449","1946-06-15",73.04,57.02,0.00,,
"USC00440449","1946-06-16",80.06,55.04,0.00,,
"USC00440449","1946-06-17",87.08,60.98,0.00,,
"USC00440449","1946-06-18",95.00,68.00,0.00,,
"USC00440449","1946-06-19",80.06,57.92,51.00,,
"USC00440449","1946-06-20",69.08,57.92,0.00,,
"USC00440449","1946-06-21",82.94,66.02,46.00,,
"USC00440449","1946-06-22",82.04,55.94,0.00,,
"USC00440449","1946-06-23",82.94,51.98,0.00,,
"USC00440449","1946-06-24",82.94,51.98,0.00,,
"USC00440449","1946-06-25",86.00,55.94,0.00,,
"USC00440449","1946-06-26",86.00,60.08,0.00,,
"USC00440449","1946-06-27",87.98,60.98,0.00,,
"USC00440449","1946-06-28",89.06,66.92,48.00,,
"USC00440449","1946-06-29",87.98,62.96,33.00,,
"USC00440449","1946-06-30",87.08,64.94,0.00,,
"USC00440449","1946-07-01",86.00,69.08,0.00,,
"USC00440449","1946-07-02",82.04,69.98,36.00,,
"USC00440449","1946-07-03",84.02,60.98,0.00,,
"USC00440449","1946-07-04",82.94,57.92,0.00,,
"USC00440449","1946-07-05",80.06,55.04,0.00,,
"USC00440449","1946-07-06",87.98,66.92,0.00,,
"USC00440449","1946-07-07",91.94,66.92,0.00,,
"USC00440449","1946-07-08",95.00,64.94,0.00,,
"USC00440449","1946-07-09",80.96,66.92,38.00,,
"USC00440449","1946-07-10",91.04,62.96,0.00,,
"USC00440449","1946-07-11",87.08,66.92,0.00,,
"USC00440449","1946-07-12",87.98,69.98,0.00,,
"USC00440449","1946-07-13",87.98,62.96,3.00,,
"USC00440449","1946-07-14",91.04,57.02,0.00,,
"USC00440449","1946-07-15",87.08,62.96,18.00,,
"USC00440449","1946-07-16",80.06,53.96,0.00,,
"USC00440449","1946-07-17",,,0.00,,
"USC00440449","1946-07-18",,57.02,0.00,,
"USC00440449","1946-07-19",93.92,57.92,0.00,,
"USC00440449","1946-07-20",96.98,71.06,152.00,,
"USC00440449","1946-07-21",91.94,66.02,86.00,,
"USC00440449","1946-07-22",84.02,66.92,112.00,,
"USC00440449","1946-07-23",84.02,68.00,343.00,,
"USC00440449","1946-07-24",91.04,66.02,0.00,,
"USC00440449","1946-07-25",89.06,69.08,38.00,,
"USC00440449","1946-07-26",89.06,64.04,3.00,,
"USC00440449","1946-07-27",80.06,51.98,0.00,,
"USC00440449","1946-07-28",84.02,53.06,0.00,,
"USC00440449","1946-07-29",84.02,53.96,0.00,,
"USC00440449","1946-07-30",84.92,53.96,0.00,,
"USC00440449","1946-07-31",86.00,57.92,0.00,,
"USC00440449","1946-08-01",78.08,66.92,66.00,,
"USC00440449","1946-08-02",75.02,62.96,58.00,,
"USC00440449","1946-08-03",84.92,57.92,0.00,,
"USC00440449","1946-08-04",87.98,60.08,0.00,,
"USC00440449","1946-08-05",89.96,64.04,0.00,,
"USC00440449","1946-08-06",82.04,68.00,533.00,,
"USC00440449","1946-08-07",73.94,62.96,46.00,,
"USC00440449","1946-08-08",86.00,60.08,0.00,,
"USC00440449","1946-08-09",87.08,60.08,0.00,,
"USC00440449","1946-08-10",89.96,69.08,107.00,,
"USC00440449","1946-08-11",78.08,62.06,0.00,,
"USC00440449","1946-08-12",78.08,57.02,0.00,,
"USC00440449","1946-08-13",80.06,55.94,0.00,,
"USC00440449","1946-08-14",78.98,55.94,0.00,,
"USC00440449","1946-08-15",80.96,53.96,0.00,,
"USC00440449","1946-08-16",73.04,64.94,30.00,,
"USC00440449","1946-08-17",89.06,64.94,8.00,,
"USC00440449","1946-08-18",82.94,69.08,0.00,,
"USC00440449","1946-08-19",86.00,68.00,0.00,,
"USC00440449","1946-08-20",82.94,59.00,0.00,,
"USC00440449","1946-08-21",80.96,62.06,0.00,,
"USC00440449","1946-08-22",84.92,59.00,0.00,,
"USC00440449","1946-08-23",75.92,62.06,394.00,,
"USC00440449","1946-08-24",75.92,51.08,0.00,,
"USC00440449","1946-08-25",75.02,51.98,0.00,,
"USC00440449","1946-08-26",77.00,53.06,0.00,,
"USC00440449","1946-08-27",78.98,51.98,0.00,,
"USC00440449","1946-08-28",82.94,53.06,0.00,,
"USC00440449","1946-08-29",77.00,64.94,0.00,,
"USC00440449","1946-08-30",71.06,55.04,142.00,,
"USC00440449","1946-08-31",73.04,46.94,0.00,,
"USC00440449","1946-09-01",78.98,46.04,0.00,,
"USC00440449","1946-09-02",82.94,53.96,3.00,,
"USC00440449","1946-09-03",75.02,57.92,10.00,,
"USC00440449","1946-09-04",75.02,48.02,0.00,,
"USC00440449","1946-09-05",75.02,50.00,0.00,,
"USC00440449","1946-09-06",77.00,53.96,0.00,,
"USC00440449","1946-09-07",84.02,60.98,0.00,,
"USC00440449","1946-09-08",89.96,62.96,0.00,,
"USC00440449","1946-09-09",93.02,64.94,0.00,,
"USC00440449","1946-09-10",89.96,64.94,0.00,,
"USC00440449","1946-09-11",84.92,66.02,0.00,,
"USC00440449","1946-09-12",80.06,55.94,0.00,,
"USC00440449","1946-09-13",71.06,59.00,0.00,,
"USC00440449","1946-09-14",71.96,46.04,0.00,,
"USC00440449","1946-09-15",78.08,42.98,0.00,,
"USC00440449","1946-09-16",80.06,42.08,0.00,,
"USC00440449","1946-09-17",84.02,44.06,0.00,,
"USC00440449","1946-09-18",84.02,51.98,0.00,,
"USC00440449","1946-09-19",80.06,50.00,0.00,,
"USC00440449","1946-09-20",78.08,55.04,109.00,,
"USC00440449","1946-09-21",82.04,60.08,318.00,,
"USC00440449","1946-09-22",87.08,60.08,3.00,,
"USC00440449","1946-09-23",80.06,66.92,503.00,,
"USC00440449","1946-09-24",78.98,69.08,163.00,,
"USC00440449","1946-09-25",80.96,57.02,0.00,,
"USC00440449","1946-09-26",82.04,51.08,0.00,,
"USC00440449","1946-09-27",84.02,55.04,0.00,,
"USC00440449","1946-09-28",82.04,60.98,0.00,,
"USC00440449","1946-09-29",75.92,66.02,23.00,,
"USC00440449","1946-09-30",75.02,57.02,13.00,,
"USC00440449","1946-10-01",59.00,42.98,0.00,,
"USC00440449","1946-10-02",68.00,42.08,0.00,,
"USC00440449","1946-10-03",75.92,46.04,0.00,,
"USC00440449","1946-10-04",80.06,48.92,0.00,,
"USC00440449","1946-10-05",80.96,46.94,0.00,,
"USC00440449","1946-10-06",84.92,46.94,0.00,,
"USC00440449","1946-10-07",84.02,48.92,0.00,,
"USC00440449","1946-10-08",75.92,51.98,0.00,,
"USC00440449","1946-10-09",60.98,51.98,109.00,,
"USC00440449","1946-10-10",60.08,53.06,74.00,,
"USC00440449","1946-10-11",69.98,57.02,3.00,,
"USC00440449","1946-10-12",78.08,51.08,188.00,,
"USC00440449","1946-10-13",60.98,37.04,0.00,,
"USC00440449","1946-10-14",62.96,35.96,0.00,,
"USC00440449","1946-10-15",66.92,35.96,0.00,,
"USC00440449","1946-10-16",69.08,37.04,0.00,,
"USC00440449","1946-10-17",75.92,44.06,0.00,,
"USC00440449","1946-10-18",71.96,50.00,18.00,,
"USC00440449","1946-10-19",66.02,44.96,0.00,,
"USC00440449","1946-10-20",51.08,42.08,76.00,,
"USC00440449","1946-10-21",60.98,46.04,94.00,,
"USC00440449","1946-10-22",64.94,39.02,0.00,,
"USC00440449","1946-10-23",71.06,37.04,0.00,,
"USC00440449","1946-10-24",75.02,42.08,0.00,,
"USC00440449","1946-10-25",75.02,42.98,0.00,,
"USC00440449","1946-10-26",69.98,51.98,155.00,,
"USC00440449","1946-10-27",73.94,46.04,0.00,,
"USC00440449","1946-10-28",75.92,62.06,46.00,,
"USC00440449","1946-10-29",80.06,60.08,0.00,,
"USC00440449","1946-10-30",82.94,53.06,0.00,,
"USC00440449","1946-10-31",84.02,51.98,0.00,,
"USC00440449","1946-11-01",69.08,57.02,0.00,,
"USC00440449","1946-11-02",73.04,57.02,0.00,,
"USC00440449","1946-11-03",69.08,59.00,0.00,,
"USC00440449","1946-11-04",78.08,57.92,0.00,,
"USC00440449","1946-11-05",62.06,39.92,0.00,,
"USC00440449","1946-11-06",60.98,35.96,0.00,,
"USC00440449","1946-11-07",62.06,41.00,0.00,,
"USC00440449","1946-11-08",71.96,53.96,84.00,,
"USC00440449","1946-11-09",57.92,48.02,0.00,,
"USC00440449","1946-11-10",60.98,35.06,0.00,,
"USC00440449","1946-11-11",66.92,46.04,5.00,,
"USC00440449","1946-11-12",64.04,42.08,0.00,,
"USC00440449","1946-11-13",51.98,26.96,0.00,,
"USC00440449","1946-11-14",55.94,37.04,0.00,,
"USC00440449","1946-11-15",55.04,33.98,0.00,,
"USC00440449","1946-11-16",53.96,28.94,0.00,,
"USC00440449","1946-11-17",50.00,42.08,211.00,,
"USC00440449","1946-11-18",53.96,,0.00,,
"USC00440449","1946-11-19",53.96,28.94,0.00,,
"USC00440449","1946-11-20",53.96,30.92,0.00,,
"USC00440449","1946-11-21",62.96,30.02,0.00,,
"USC00440449","1946-11-22",64.94,46.04,0.00,,
"USC00440449","1946-11-23",46.94,23.00,10.00,,
"USC00440449","1946-11-24",53.96,23.00,0.00,,
"USC00440449","1946-11-25",69.08,37.94,0.00,,
"USC00440449","1946-11-26",69.98,46.04,5.00,,
"USC00440449","1946-11-27",68.00,48.02,0.00,,
"USC00440449","1946-11-28",53.96,35.96,0.00,,
"USC00440449","1946-11-29",57.92,35.96,0.00,,
"USC00440449","1946-11-30",57.02,30.92,0.00,,
"USC00440449","1946-12-01",62.06,37.94,0.00,,
"USC00440449","1946-12-02",42.08,19.04,0.00,,
"USC00440449","1946-12-03",33.08,15.08,0.00,,
"USC00440449","1946-12-04",50.00,15.08,0.00,,
"USC00440449","1946-12-05",55.94,19.94,0.00,,
"USC00440449","1946-12-06",62.06,30.02,0.00,,
"USC00440449","1946-12-07",55.04,35.06,0.00,,
"USC00440449","1946-12-08",55.04,30.02,0.00,,
"USC00440449","1946-12-09",66.92,28.04,0.00,,
"USC00440449","1946-12-10",66.02,32.00,0.00,,
"USC00440449","1946-12-11",62.06,46.04,0.00,,
"USC00440449","1946-12-12",64.04,42.08,5.00,,
"USC00440449","1946-12-13",,42.98,5.00,,
"USC00440449","1946-12-14",,,0.00,,
"USC00440449","1946-12-15",,26.96,0.00,,
"USC00440449","1946-12-16",39.92,26.96,0.00,,
"USC00440449","1946-12-17",62.96,30.02,0.00,,
"USC00440449","1946-12-18",51.08,30.02,41.00,,
"USC00440449","1946-12-19",33.08,17.06,0.00,,
"USC00440449","1946-12-20",35.96,,279.00,,
"USC00440449","1946-12-21",37.94,,165.00,,
"USC00440449","1946-12-22",44.96,26.96,0.00,,
"USC00440449","1946-12-23",48.02,21.02,0.00,,
"USC00440449","1946-12-24",60.08,30.92,0.00,,
"USC00440449","1946-12-25",50.00,24.08,0.00,,
"USC00440449","1946-12-26",57.02,23.00,0.00,,
"USC00440449","1946-12-27",41.00,24.08,0.00,,
"USC00440449","1946-12-28",73.04,32.00,0.00,,
"USC00440449","1946-12-29",60.98,35.06,36.00,,
"USC00440449","1946-12-30",44.96,26.06,13.00,,
"USC00440449","1946-12-31",32.00,19.04,10.00,,
"USC00440449","1947-02-01",46.94,26.06,0.00,,
"USC00440449","1947-02-02",44.96,26.06,0.00,,
"USC00440449","1947-02-03",39.92,19.04,0.00,,
"USC00440449","1947-02-04",37.94,17.96,86.00,,
"USC00440449","1947-02-05",19.04,5.00,0.00,,
"USC00440449","1947-02-06",42.98,8.06,0.00,,
"USC00440449","1947-02-07",51.08,28.94,0.00,,
"USC00440449","1947-02-08",41.00,12.92,30.00,,
"USC00440449","1947-02-09",30.92,3.92,0.00,,
"USC00440449","1947-02-10",33.98,17.06,0.00,,
"USC00440449","1947-02-11",44.96,21.92,0.00,,
"USC00440449","1947-02-12",44.06,24.98,0.00,,
"USC00440449","1947-02-13",44.96,21.92,0.00,,
"USC00440449","1947-02-14",55.04,35.96,0.00,,
"USC00440449","1947-02-15",51.98,28.04,0.00,,
"USC00440449","1947-02-16",44.96,35.96,0.00,,
"USC00440449","1947-02-17",48.92,28.04,0.00,,
"USC00440449","1947-02-18",50.00,21.92,0.00,,
"USC00440449","1947-02-19",42.08,26.06,0.00,,
"USC00440449","1947-02-20",28.04,17.96,216.00,,
"USC00440449","1947-02-21",33.98,24.98,48.00,,
"USC00440449","1947-02-22",32.00,21.02,0.00,,
"USC00440449","1947-02-23",37.94,6.08,0.00,,
"USC00440449","1947-02-24",33.98,5.00,0.00,,
"USC00440449","1947-02-25",42.08,12.02,0.00,,
"USC00440449","1947-02-26",39.92,15.98,0.00,,
"USC00440449","1947-02-27",35.96,24.08,0.00,,
"USC00440449","1947-02-28",39.02,12.02,0.00,,
"USC00440449","1947-03-01",35.06,17.06,0.00,,
"USC00440449","1947-03-02",35.96,30.02,30.00,,
"USC00440449","1947-03-03",37.04,26.06,0.00,,
"USC00440449","1947-03-04",42.08,21.02,0.00,,
"USC00440449","1947-03-05",42.08,26.96,0.00,,
"USC00440449","1947-03-06",44.96,26.96,0.00,,
"USC00440449","1947-03-07",42.98,24.08,0.00,,
"USC00440449","1947-03-08",37.04,26.06,8.00,,
"USC00440449","1947-03-09",42.08,21.02,0.00,,
"USC00440449","1947-03-10",44.96,24.08,0.00,,
"USC00440449","1947-03-11",48.92,26.96,0.00,,
"USC00440449","1947-03-12",51.98,23.00,0.00,,
"USC00440449","1947-03-13",48.02,23.00,41.00,,
"USC00440449","1947-03-14",41.00,24.08,25.00,,
"USC00440449","1947-03-15",60.08,32.00,0.00,,
"USC00440449","1947-03-16",57.92,24.08,0.00,,
"USC00440449","1947-03-17",44.06,26.96,0.00,,
"USC00440449","1947-03-18",42.98,28.94,0.00,,
"USC00440449","1947-03-19",42.98,21.02,0.00,,
"USC00440449","1947-03-20",51.08,21.92,0.00,,
"USC00440449","1947-03-21",51.08,30.02,18.00,,
"USC00440449","1947-03-22",48.02,33.08,0.00,,
"USC00440449","1947-03-23",66.92,26.96,0.00,,
"USC00440449","1947-03-24",64.94,48.02,64.00,,
"USC00440449","1947-03-25",59.00,37.94,18.00,,
"USC00440449","1947-03-26",39.02,26.96,0.00,,
"USC00440449","1947-03-27",42.08,24.98,10.00,,
"USC00440449","1947-03-28",46.04,26.06,13.00,,
"USC00440449","1947-03-29",60.98,26.06,0.00,,
"USC00440449","1947-03-30",55.94,33.98,0.00,,
"USC00440449","1947-03-31",53.96,26.06,0.00,,
"USC00440449","1947-04-01",64.04,28.04,0.00,0.00,
"USC00440449","1947-04-02",60.98,50.00,152.00,0.00,
"USC00440449","1947-04-03",55.94,44.06,5.00,0.00,
"USC00440449","1947-04-04",53.96,30.02,0.00,0.00,
"USC00440449","1947-04-05",73.04,46.04,0.00,0.00,
"USC00440449","1947-04-06",84.92,64.04,0.00,0.00,
"USC00440449","1947-04-07",75.02,50.00,0.00,0.00,
"USC00440449","1947-04-08",60.08,32.00,0.00,0.00,
"USC00440449","1947-04-09",60.98,44.06,79.00,0.00,
"USC00440449","1947-04-10",64.04,33.08,0.00,0.00,
"USC00440449","1947-04-11",78.08,48.92,0.00,0.00,
"USC00440449","1947-04-12",80.06,62.06,20.00,0.00,
"USC00440449","1947-04-13",68.00,44.06,0.00,0.00,
"USC00440449","1947-04-14",57.02,46.94,53.00,0.00,
"USC00440449","1947-04-15",69.98,41.00,0.00,0.00,
"USC00440449","1947-04-16",69.98,51.08,119.00,0.00,
"USC00440449","1947-04-17",68.00,42.98,0.00,0.00,
"USC00440449","1947-04-18",73.04,37.94,0.00,0.00,
"USC00440449","1947-04-19",80.06,42.08,0.00,0.00,
"USC00440449","1947-04-20",82.04,44.06,0.00,0.00,
"USC00440449","1947-04-21",75.92,41.00,38.00,0.00,
"USC00440449","1947-04-22",53.96,37.04,0.00,0.00,
"USC00440449","1947-04-23",64.94,32.00,0.00,0.00,
"USC00440449","1947-04-24",82.04,44.96,0.00,0.00,